• Em Portugal
  • Lista de países
  • Para 7 dias
  • Temperatura da água
  • Mapas de satélite
  • Mapa do tempo
  • Widgets de tempo
  • user-avatar
    Iniciar Sessão

    Previsão horária em Hotetovo

    Hoje, 21 Setembro, Sexta-feira

    Tempo Temperatura Precipitação Vento Pressão Humidade
    00:00 +16°C° 0 mm 1 m/s 744 mmHg 91%
    01:00 +15°C° 0 mm 1 m/s 745 mmHg 91%
    02:00 +15°C° 0 mm 1 m/s 745 mmHg 92%
    03:00 +15°C° 0 mm 1 m/s 745 mmHg 92%
    04:00 +14°C° 0 mm 1 m/s 745 mmHg 92%
    05:00 +14°C° 0 mm 1 m/s 745 mmHg 93%
    06:00 +15°C° 0 mm 1 m/s 745 mmHg 88%
    07:00 +18°C° 0 mm 1 m/s 746 mmHg 82%
    08:00 +19°C° 0 mm 1 m/s 746 mmHg 76%
    09:00 +21°C° 0 mm 1 m/s 746 mmHg 69%
    10:00 +22°C° 0 mm 1 m/s 746 mmHg 62%
    11:00 +24°C° 0 mm 2 m/s 746 mmHg 55%
    12:00 +25°C° 0 mm 2 m/s 746 mmHg 53%
    13:00 +25°C° 0 mm 2 m/s 746 mmHg 51%
    14:00 +26°C° 0 mm 1 m/s 746 mmHg 48%
    15:00 +25°C° 0 mm 1 m/s 746 mmHg 53%
    16:00 +24°C° 0 mm 1 m/s 746 mmHg 59%
    17:00 +20°C° 0 mm 0 m/s 745 mmHg 64%
    18:00 +21°C° 0 mm 1 m/s 745 mmHg 67%
    19:00 +20°C° 0 mm 1 m/s 745 mmHg 71%
    20:00 +18°C° 0 mm 2 m/s 745 mmHg 74%
    21:00 +18°C° 0 mm 2 m/s 745 mmHg 76%
    22:00 +18°C° 0 mm 2 m/s 745 mmHg 79%
    23:00 +17°C° 0 mm 2 m/s 745 mmHg 81%

    Amanhã, 22 Setembro, Sábado

    Tempo Temperatura Precipitação Vento Pressão Humidade
    00:00 +17°C° 0 mm 2 m/s 745 mmHg 83%
    01:00 +17°C° 0 mm 2 m/s 745 mmHg 84%
    02:00 +16°C° 0 mm 2 m/s 745 mmHg 86%
    03:00 +16°C° 0 mm 2 m/s 745 mmHg 86%
    04:00 +16°C° 0 mm 2 m/s 745 mmHg 87%
    05:00 +16°C° 0 mm 3 m/s 745 mmHg 87%
    06:00 +17°C° 0 mm 3 m/s 744 mmHg 81%
    07:00 +19°C° 0 mm 3 m/s 744 mmHg 75%
    08:00 +20°C° 0 mm 4 m/s 744 mmHg 69%
    09:00 +22°C° 0 mm 4 m/s 744 mmHg 63%
    10:00 +23°C° 0 mm 5 m/s 744 mmHg 58%
    11:00 +26°C° 0 mm 5 m/s 744 mmHg 52%
    12:00 +26°C° 0 mm 5 m/s 743 mmHg 52%
    13:00 +26°C° 0 mm 5 m/s 743 mmHg 51%
    14:00 +27°C° 0 mm 5 m/s 742 mmHg 50%
    15:00 +26°C° 0 mm 5 m/s 742 mmHg 54%
    16:00 +25°C° 0 mm 4 m/s 741 mmHg 58%
    17:00 +24°C° 0 mm 3 m/s 741 mmHg 61%
    18:00 +22°C° 0 mm 4 m/s 740 mmHg 61%
    19:00 +22°C° 0 mm 4 m/s 740 mmHg 60%
    20:00 +21°C° 0 mm 5 m/s 740 mmHg 60%
    21:00 +21°C° 0 mm 5 m/s 740 mmHg 60%
    22:00 +20°C° 0 mm 5 m/s 739 mmHg 59%
    23:00 +20°C° 0 mm 5 m/s 739 mmHg 59%

    Depois de amanhã, 23 Setembro, Domingo

    Tempo Temperatura Precipitação Vento Pressão Humidade
    00:00 +19°C° 0 mm 5 m/s 739 mmHg 62%
    01:00 +18°C° 0 mm 4 m/s 739 mmHg 65%
    02:00 +17°C° 0 mm 4 m/s 739 mmHg 68%
    03:00 +14°C° 0.3 mm 4 m/s 738 mmHg 74%
    04:00 +13°C° 0.3 mm 5 m/s 738 mmHg 79%
    05:00 +12°C° 0.3 mm 5 m/s 738 mmHg 85%
    06:00 +10°C° 0.6 mm 5 m/s 738 mmHg 86%
    07:00 +9°C° 0.6 mm 5 m/s 738 mmHg 86%
    08:00 +8°C° 0.6 mm 5 m/s 738 mmHg 87%
    09:00 +8°C° 0.2 mm 5 m/s 739 mmHg 86%
    10:00 +8°C° 0.2 mm 4 m/s 739 mmHg 84%
    11:00 +10°C° 0.2 mm 4 m/s 739 mmHg 83%
    12:00 +10°C° 0.1 mm 4 m/s 740 mmHg 83%
    13:00 +10°C° 0.1 mm 4 m/s 740 mmHg 83%
    14:00 +11°C° 0.1 mm 4 m/s 740 mmHg 83%
    15:00 +10°C° 0 mm 4 m/s 740 mmHg 82%
    16:00 +10°C° 0 mm 4 m/s 739 mmHg 82%
    17:00 +10°C° 0 mm 4 m/s 739 mmHg 81%
    18:00 +10°C° 0.1 mm 3 m/s 739 mmHg 83%
    19:00 +10°C° 0.1 mm 3 m/s 739 mmHg 84%
    20:00 +9°C° 0.1 mm 3 m/s 739 mmHg 85%
    21:00 +9°C° 0 mm 3 m/s 739 mmHg 88%
    22:00 +8°C° 0 mm 3 m/s 739 mmHg 90%
    23:00 +8°C° 0 mm 3 m/s 739 mmHg 93%

    24 Setembro, Segunda-feira

    Tempo Temperatura Precipitação Vento Pressão Humidade
    00:00 +7°C° 0 mm 3 m/s 739 mmHg 93%
    01:00 +7°C° 0 mm 3 m/s 739 mmHg 93%
    02:00 +7°C° 0 mm 3 m/s 739 mmHg 93%
    03:00 +5°C° 0 mm 3 m/s 739 mmHg 93%
    04:00 +5°C° 0 mm 3 m/s 739 mmHg 94%
    05:00 +5°C° 0 mm 3 m/s 739 mmHg 94%
    06:00 +7°C° 0 mm 3 m/s 739 mmHg 90%
    07:00 +8°C° 0 mm 3 m/s 739 mmHg 86%
    08:00 +9°C° 0 mm 3 m/s 739 mmHg 82%
    09:00 +10°C° 0 mm 3 m/s 738 mmHg 75%
    10:00 +12°C° 0 mm 4 m/s 738 mmHg 68%
    11:00 +13°C° 0 mm 4 m/s 738 mmHg 62%
    12:00 +13°C° 0 mm 4 m/s 737 mmHg 61%
    13:00 +13°C° 0 mm 4 m/s 737 mmHg 60%
    14:00 +13°C° 0 mm 4 m/s 736 mmHg 60%
    15:00 +12°C° 0.8 mm 5 m/s 735 mmHg 68%
    16:00 +10°C° 0.8 mm 6 m/s 734 mmHg 76%
    17:00 +9°C° 0.8 mm 6 m/s 733 mmHg 83%
    18:00 +9°C° 2.9 mm 7 m/s 731 mmHg 86%
    19:00 +7°C° 2.9 mm 8 m/s 729 mmHg 88%
    20:00 +7°C° 2.9 mm 9 m/s 727 mmHg 90%
    21:00 +8°C° 1.8 mm 9 m/s 726 mmHg 89%
    22:00 +9°C° 1.8 mm 8 m/s 724 mmHg 88%
    23:00 +9°C° 1.8 mm 7 m/s 723 mmHg 87%

    25 Setembro, Terça-feira

    Tempo Temperatura Precipitação Vento Pressão Humidade
    00:00 +9°C° 0.5 mm 7 m/s 723 mmHg 88%
    01:00 +8°C° 0.5 mm 6 m/s 722 mmHg 89%
    02:00 +8°C° 0.5 mm 6 m/s 722 mmHg 91%
    03:00 +8°C° 0.4 mm 6 m/s 722 mmHg 91%
    04:00 +8°C° 0.4 mm 6 m/s 722 mmHg 91%
    05:00 +8°C° 0.4 mm 6 m/s 723 mmHg 92%
    06:00 +8°C° 0.4 mm 7 m/s 723 mmHg 91%
    07:00 +6°C° 0.4 mm 7 m/s 724 mmHg 89%
    08:00 +6°C° 0.4 mm 8 m/s 725 mmHg 88%
    09:00 +6°C° 0.8 mm 8 m/s 726 mmHg 88%
    10:00 +6°C° 0.8 mm 9 m/s 727 mmHg 87%
    11:00 +6°C° 0.8 mm 9 m/s 728 mmHg 86%
    12:00 +5°C° 1.1 mm 9 m/s 729 mmHg 86%
    13:00 +5°C° 1.1 mm 10 m/s 730 mmHg 85%
    14:00 +5°C° 1.1 mm 10 m/s 731 mmHg 84%
    15:00 +5°C° 0.7 mm 9 m/s 732 mmHg 84%
    16:00 +5°C° 0.7 mm 9 m/s 733 mmHg 84%
    17:00 +5°C° 0.7 mm 9 m/s 734 mmHg 83%
    18:00 +5°C° 0.3 mm 8 m/s 734 mmHg 83%
    19:00 +4°C° 0.3 mm 8 m/s 735 mmHg 83%
    20:00 +4°C° 0.3 mm 8 m/s 736 mmHg 83%
    21:00 +4°C° 0.1 mm 7 m/s 736 mmHg 83%
    22:00 +4°C° 0.1 mm 7 m/s 737 mmHg 82%
    23:00 +4°C° 0.1 mm 7 m/s 737 mmHg 82%

    26 Setembro, Quarta-feira

    Tempo Temperatura Precipitação Vento Pressão Humidade
    00:00 +3°C° 0 mm 6 m/s 738 mmHg 83%
    01:00 +3°C° 0 mm 6 m/s 738 mmHg 84%
    02:00 +2°C° 0 mm 6 m/s 739 mmHg 85%
    03:00 +2°C° 0 mm 6 m/s 739 mmHg 85%
    04:00 +1°C° 0 mm 5 m/s 740 mmHg 84%
    05:00 0°C° 0 mm 5 m/s 740 mmHg 84%
    06:00 +1°C° 0 mm 5 m/s 740 mmHg 80%
    07:00 +2°C° 0 mm 5 m/s 740 mmHg 75%
    08:00 +2°C° 0 mm 6 m/s 741 mmHg 71%
    09:00 +3°C° 0 mm 5 m/s 741 mmHg 65%
    10:00 +6°C° 0 mm 5 m/s 740 mmHg 59%
    11:00 +7°C° 0 mm 5 m/s 740 mmHg 53%
    12:00 +6°C° 0.5 mm 4 m/s 740 mmHg 62%
    13:00 +6°C° 0.5 mm 4 m/s 740 mmHg 70%
    14:00 +5°C° 0.5 mm 4 m/s 739 mmHg 78%
    15:00 +5°C° 0.5 mm 3 m/s 739 mmHg 81%
    16:00 +5°C° 0.5 mm 3 m/s 739 mmHg 84%
    17:00 +6°C° 0.5 mm 2 m/s 739 mmHg 88%
    18:00 +5°C° 0.2 mm 2 m/s 739 mmHg 90%
    19:00 +4°C° 0.2 mm 2 m/s 740 mmHg 92%
    20:00 +3°C° 0.2 mm 3 m/s 740 mmHg 93%
    21:00 +2°C° 0 mm 3 m/s 741 mmHg 94%
    22:00 +1°C° 0 mm 3 m/s 741 mmHg 94%
    23:00 +1°C° 0 mm 3 m/s 742 mmHg 95%
    Mostrar mais